TimeAEST,TemperatureF,Dew PointF,Humidity,Sea Level PressureIn,VisibilityMPH,Wind Direction,Wind SpeedMPH,Gust SpeedMPH,PrecipitationIn,Events,Conditions,WindDirDegrees,DateUTC
12:00 AM,47,37,59,29.81,22,North,8.1,,,,Partly Cloudy,0,2013-09-10 14:00:00
12:00 AM,46.4,37.4,71,29.80,6.2,North,8.1,-,N/A,,Partly Cloudy,360,2013-09-10 14:00:00
12:30 AM,50.0,37.4,62,29.80,6.2,WNW,12.7,-,N/A,,Partly Cloudy,290,2013-09-10 14:30:00
1:00 AM,50,38,52,29.80,,NW,10.4,,,,,310,2013-09-10 15:00:00
1:00 AM,50.0,37.4,62,29.77,6.2,NW,10.4,-,N/A,,Partly Cloudy,310,2013-09-10 15:00:00
1:30 AM,50.0,37.4,62,29.77,6.2,NNW,9.2,-,N/A,,Partly Cloudy,330,2013-09-10 15:30:00
2:00 AM,48,38,60,29.79,,NNW,5.8,,,,,340,2013-09-10 16:00:00
2:00 AM,48.2,39.2,71,29.77,-9999.0,NNW,5.8,-,N/A,,Clear,340,2013-09-10 16:00:00
2:30 AM,50.0,39.2,66,29.77,-9999.0,West,11.5,-,N/A,,Clear,270,2013-09-10 16:30:00
3:00 AM,49,40,62,29.79,22,West,12.7,,,,Partly Cloudy,280,2013-09-10 17:00:00
3:00 AM,48.2,39.2,71,29.77,-9999.0,West,12.7,-,N/A,,Clear,280,2013-09-10 17:00:00
3:30 AM,48.2,39.2,71,29.77,6.2,West,11.5,-,N/A,,Partly Cloudy,280,2013-09-10 17:30:00
4:00 AM,50,40,59,29.78,,West,16.1,,,,,280,2013-09-10 18:00:00
4:00 AM,50.0,39.2,66,29.77,6.2,West,16.1,-,N/A,,Mostly Cloudy,280,2013-09-10 18:00:00
4:30 AM,50.0,41.0,71,29.77,6.2,West,16.1,-,N/A,,Mostly Cloudy,280,2013-09-10 18:30:00
5:00 AM,50,41,63,29.79,,WNW,17.3,,,,,290,2013-09-10 19:00:00
5:00 AM,50.0,41.0,71,29.77,6.2,WNW,17.3,-,N/A,,Mostly Cloudy,290,2013-09-10 19:00:00
5:30 AM,50.0,41.0,71,29.77,6.2,WNW,15.0,-,N/A,,Partly Cloudy,290,2013-09-10 19:30:00
6:00 AM,49,42,68,29.81,22,WNW,16.1,,,,Partly Cloudy,290,2013-09-10 20:00:00
6:00 AM,48.2,41.0,76,29.80,6.2,WNW,16.1,-,N/A,,Scattered Clouds,290,2013-09-10 20:00:00
6:30 AM,50.0,41.0,71,29.80,6.2,WNW,16.1,-,N/A,,Mostly Cloudy,290,2013-09-10 20:30:00
7:00 AM,50,41,62,29.83,,WNW,10.4,,,,,300,2013-09-10 21:00:00
7:00 AM,50.0,41.0,71,29.83,6.2,WNW,10.4,-,N/A,,Scattered Clouds,300,2013-09-10 21:00:00
7:30 AM,51.8,41.0,67,29.83,6.2,WNW,13.8,-,N/A,,Scattered Clouds,300,2013-09-10 21:30:00
8:00 AM,52,40,54,29.85,,West,18.4,,,,,280,2013-09-10 22:00:00
8:00 AM,51.8,41.0,67,29.83,6.2,West,18.4,-,N/A,,Partly Cloudy,280,2013-09-10 22:00:00
8:30 AM,53.6,41.0,62,29.86,6.2,West,17.3,-,N/A,,Scattered Clouds,280,2013-09-10 22:30:00
9:00 AM,55,40,45,29.86,16,West,19.6,,,,Haze,280,2013-09-10 23:00:00
9:00 AM,55.4,39.2,54,29.86,6.2,West,19.6,-,N/A,,Partly Cloudy,280,2013-09-10 23:00:00
9:30 AM,55.4,37.4,51,29.86,6.2,West,19.6,-,N/A,,Partly Cloudy,270,2013-09-10 23:30:00
10:00 AM,57,37,36,29.87,,WNW,19.6,,,,,290,2013-09-11 00:00:00
10:00 AM,57.2,37.4,48,29.86,6.2,WNW,19.6,-,N/A,,Partly Cloudy,290,2013-09-11 00:00:00
10:30 AM,57.2,35.6,44,29.86,6.2,West,18.4,-,N/A,,Mostly Cloudy,280,2013-09-11 00:30:00
11:00 AM,57,35,31,29.87,,West,18.4,,,,,270,2013-09-11 01:00:00
11:00 AM,57.2,35.6,44,29.86,6.2,West,18.4,-,N/A,,Mostly Cloudy,270,2013-09-11 01:00:00
11:30 AM,59.0,33.8,39,29.86,6.2,WSW,18.4,-,N/A,,Mostly Cloudy,250,2013-09-11 01:30:00
12:00 PM,59,35,28,29.86,19,WSW,18.4,,,,Partly Cloudy,250,2013-09-11 02:00:00
12:00 PM,59.0,35.6,42,29.86,6.2,WSW,18.4,-,N/A,,Mostly Cloudy,250,2013-09-11 02:00:00
12:30 PM,59.0,33.8,39,29.86,-9999.0,WSW,16.1,-,N/A,,Clear,250,2013-09-11 02:30:00
1:00 PM,59,35,28,29.86,,WSW,13.8,,,,,250,2013-09-11 03:00:00
1:00 PM,59.0,35.6,42,29.86,-9999.0,WSW,13.8,-,N/A,,Clear,250,2013-09-11 03:00:00
1:30 PM,59.0,35.6,42,29.83,6.2,WSW,18.4,-,N/A,,Mostly Cloudy,250,2013-09-11 03:30:00
2:00 PM,59,33,25,29.86,,West,19.6,,,,,260,2013-09-11 04:00:00
2:00 PM,59.0,32.0,36,29.83,6.2,West,19.6,-,N/A,,Mostly Cloudy,260,2013-09-11 04:00:00
2:30 PM,59.0,33.8,39,29.86,-9999.0,West,19.6,-,N/A,,Clear,260,2013-09-11 04:30:00
3:00 PM,59,33,26,29.87,19,West,18.4,,,,Mostly Cloudy,270,2013-09-11 05:00:00
3:00 PM,59.0,33.8,39,29.86,-9999.0,West,18.4,-,N/A,,Clear,270,2013-09-11 05:00:00
3:30 PM,59.0,35.6,42,29.86,-9999.0,West,17.3,-,N/A,,Clear,270,2013-09-11 05:30:00
4:00 PM,59,33,26,29.87,,WSW,16.1,,,,,250,2013-09-11 06:00:00
4:00 PM,59.0,33.8,39,29.86,-9999.0,WSW,16.1,-,N/A,,Clear,250,2013-09-11 06:00:00
4:30 PM,59.0,33.8,39,29.86,-9999.0,West,18.4,-,N/A,,Clear,270,2013-09-11 06:30:00
5:00 PM,59,31,23,29.88,,WSW,15.0,,,,,250,2013-09-11 07:00:00
5:00 PM,59.0,32.0,36,29.86,-9999.0,WSW,15.0,-,N/A,,Clear,250,2013-09-11 07:00:00
5:30 PM,55.4,39.2,54,29.89,-9999.0,SSW,12.7,-,N/A,,Clear,210,2013-09-11 07:30:00
6:00 PM,54,42,53,29.91,19,SSW,10.4,,,,Partly Cloudy,210,2013-09-11 08:00:00
6:00 PM,53.6,42.8,67,29.89,-9999.0,SSW,10.4,-,N/A,,Clear,210,2013-09-11 08:00:00
6:30 PM,51.8,42.8,71,29.92,-9999.0,SSW,8.1,-,N/A,,Clear,210,2013-09-11 08:30:00
7:00 PM,51,43,66,29.94,,SW,6.9,,,,,230,2013-09-11 09:00:00
7:00 PM,51.8,42.8,71,29.92,6.2,SW,6.9,-,N/A,,Mostly Cloudy,230,2013-09-11 09:00:00
7:30 PM,51.8,42.8,71,29.95,6.2,WNW,5.8,-,N/A,,Mostly Cloudy,290,2013-09-11 09:30:00
8:00 PM,51,43,67,29.96,,NW,5.8,,,,,310,2013-09-11 10:00:00
8:00 PM,51.8,42.8,71,29.95,6.2,NW,5.8,-,N/A,,Mostly Cloudy,310,2013-09-11 10:00:00
8:30 PM,50.0,44.6,82,29.95,6.2,West,5.8,-,N/A,,Scattered Clouds,280,2013-09-11 10:30:00
9:00 PM,49,43,74,29.98,22,West,5.8,,,,Partly Cloudy,270,2013-09-11 11:00:00
9:00 PM,50.0,42.8,76,29.95,6.2,West,5.8,-,N/A,,Mostly Cloudy,270,2013-09-11 11:00:00
9:30 PM,46.4,42.8,87,29.98,6.2,West,5.8,-,N/A,,Scattered Clouds,260,2013-09-11 11:30:00
10:00 PM,48,42,74,29.98,,WNW,6.9,,,,,290,2013-09-11 12:00:00
10:00 PM,48.2,42.8,82,29.98,6.2,WNW,6.9,-,N/A,,Mostly Cloudy,290,2013-09-11 12:00:00
10:30 PM,48.2,42.8,82,29.98,6.2,WNW,8.1,-,N/A,,Mostly Cloudy,290,2013-09-11 12:30:00
11:00 PM,46,41,76,29.99,,WNW,8.1,,,,,300,2013-09-11 13:00:00
11:00 PM,46.4,41.0,81,29.98,6.2,WNW,8.1,-,N/A,,Partly Cloudy,300,2013-09-11 13:00:00
11:30 PM,46.4,41.0,81,29.98,6.2,WNW,9.2,-,N/A,,Partly Cloudy,300,2013-09-11 13:30:00